Location: Lake Almanor
(40.2485°N, 121.1442°W)
Time: 01:37:18
(UTC-08:00)

FALCON 9 DEB - Pass Details

Date: 29 January 2020
Orbit: 248 x 258 km, 53.0° (Epoch: 17 February)

Event Time Altitude Azimuth Distance (km) Brightness Sun altitude
Rises 18:50:06 0° 316° (NW) 1,957 ? -17.5°
Reaches altitude 10° 18:52:06 10° 326° (NNW) 1,144 ? -17.8°
Enters shadow 18:53:10 20° 341° (NNW) 762 ? -18.0°
